FW9451 Weather Reports


Display with metric or nautical units.
time (UTC)temp
F
wind
direction
speed
MPH
gust
MPH
rain 1hr
in
rain 24hr
in
rain mn
in
humidity
%
barometer
mb
20260904133100 66 234 0.0 3.0 0.00 0.00 0.00 95 1011.2
20260904131557 64 327 1.0 5.0 0.00 0.00 0.00 95 1011.2
20260904130054 64 229 1.0 5.0 0.00 0.00 0.00 96 1011.2
20260904124557 63 267 2.0 4.0 0.00 0.01 0.00 95 1011.2
20260904123053 63 245 1.0 5.0 0.00 0.01 0.00 96 1011.2
20260904121559 62 307 2.0 4.0 0.00 0.01 0.00 95 1011.3
20260904120107 62 0 0.0 4.0 0.00 0.01 0.00 95 1011.2
20260904114556 62 218 1.0 3.0 0.00 0.04 0.00 95 1011.2
20260904113100 62 0 1.0 4.0 0.00 0.04 0.00 95 1011.0
20260904111605 62 248 2.0 5.0 0.00 0.04 0.00 95 1011.1
20260904104556 63 0 1.0 4.0 0.00 0.04 0.00 95 1011.0
20260904103057 62 334 1.0 5.0 0.00 0.04 0.00 95 1010.9
20260904101600 62 325 2.0 6.0 0.00 0.04 0.00 95 1010.7
20260904100056 63 283 2.0 5.0 0.00 0.04 0.00 95 1010.8
20260904094602 63 303 1.0 8.0 0.00 0.12 0.00 95 1010.8
20260904093109 63 263 3.0 10.0 0.00 0.12 0.00 95 1010.8
20260904091558 63 255 3.0 7.0 0.00 0.12 0.00 95 1010.7
20260904090057 62 257 3.0 7.0 0.00 0.12 0.00 95 1010.5
20260904084555 62 238 3.0 7.0 0.00 0.13 0.00 95 1010.6
20260904083101 62 134 2.0 5.0 0.00 0.13 0.00 95 1010.6
20260904081558 62 196 2.0 4.0 0.00 0.13 0.00 95 1010.6
20260904080055 62 240 1.0 3.0 0.00 0.13 0.00 95 1010.8
20260904074603 62 0 2.0 7.0 0.00 0.14 0.00 95 1011.1
20260904073050 62 256 2.0 4.0 0.00 0.14 0.00 95 1011.0
20260904071559 62 251 2.0 4.0 0.00 0.14 0.00 95 1011.1
20260904070101 62 222 1.0 4.0 0.00 0.14 0.00 95 1011.1
20260904064605 62 254 2.0 5.0 0.00 0.15 0.00 95 1011.4
20260904063116 62 263 2.0 6.0 0.00 0.15 0.00 94 1011.5
20260904061557 62 288 3.0 6.0 0.00 0.15 0.00 94 1011.5
20260904060100 62 238 2.0 4.0 0.00 0.15 0.00 94 1011.7
20260904054554 62 251 1.0 6.0 0.00 0.15 0.00 94 1012.0
20260904053100 62 213 2.0 4.0 0.00 0.15 0.00 94 1012.3
20260904051606 61 0 0.0 0.0 0.00 0.15 0.00 94 1012.5
20260904050108 61 0 0.0 0.0 0.00 0.15 0.00 94 1012.4
20260904044556 61 0 0.0 0.0 0.00 0.15 0.00 94 1012.4
20260904043100 61 0 0.0 0.0 0.00 0.15 0.00 94 1012.5
20260904041559 61 0 0.0 0.0 0.00 0.15 0.00 93 1012.7
20260904040110 61 0 0.0 0.0 0.00 0.15 0.00 93 1012.8
20260904034603 61 0 0.0 3.0 0.00 0.15 0.15 93 1012.9
20260904033100 62 5 1.0 4.0 0.00 0.15 0.15 93 1012.9
20260904031557 62 340 1.0 8.0 0.00 0.15 0.15 93 1012.8
20260904030058 62 217 3.0 9.0 0.00 0.15 0.15 93 1012.8
20260904024554 62 205 4.0 7.0 0.00 0.15 0.15 93 1012.9
20260904023102 62 0 0.0 1.0 0.00 0.15 0.15 93 1013.1
20260904021606 62 214 1.0 3.0 0.00 0.15 0.15 92 1013.6
20260904020101 62 214 0.0 3.0 0.00 0.15 0.15 92 1013.4
20260904014620 62 0 0.0 1.0 0.00 0.15 0.15 92 1013.6
20260904013058 62 0 0.0 2.0 0.00 0.15 0.15 92 1013.6
20260904011559 63 12 0.0 2.0 0.00 0.15 0.15 92 1013.6
20260904010056 63 0 0.0 1.0 0.00 0.15 0.15 91 1013.6
20260904004553 63 0 0.0 3.0 0.00 0.15 0.15 91 1013.6
20260904003100 63 40 2.0 4.0 0.00 0.15 0.15 91 1013.4
20260904001559 63 9 1.0 5.0 0.00 0.15 0.15 91 1013.7
20260904000112 63 0 1.0 3.0 0.00 0.15 0.15 90 1013.5
20260903234553 64 25 0.0 0.0 0.00 0.15 0.15 90 1013.4
20260903233103 64 0 0.0 0.0 0.00 0.15 0.15 90 1013.3
20260903231556 64 0 0.0 0.0 0.00 0.15 0.15 89 1013.4
20260903230057 64 0 0.0 1.0 0.00 0.15 0.15 88 1013.4
20260903224610 65 0 0.0 1.0 0.00 0.15 0.15 88 1013.7
20260903223058 65 0 0.0 1.0 0.00 0.15 0.15 88 1013.8
20260903221555 65 0 0.0 1.0 0.00 0.15 0.15 87 1013.7
20260903220053 65 0 0.0 1.0 0.00 0.15 0.15 87 1013.7
20260903214608 66 0 0.0 0.0 0.00 0.15 0.15 87 1013.5
20260903213110 66 0 0.0 1.0 0.00 0.15 0.15 87 1013.6
20260903211603 66 0 0.0 2.0 0.00 0.15 0.15 87 1013.7
20260903210123 66 0 0.0 2.0 0.00 0.15 0.15 87 1013.6
20260903204558 66 0 0.0 2.0 0.00 0.15 0.15 87 1013.8
20260903203113 66 0 0.0 4.0 0.00 0.15 0.15 87 1013.8
20260903201555 66 195 0.0 3.0 0.00 0.15 0.15 89 1013.8
20260903194558 65 0 0.0 1.0 0.00 0.15 0.15 90 1014.1
20260903193056 64 0 0.0 2.0 0.00 0.15 0.15 91 1014.1
20260903191600 64 205 0.0 3.0 0.00 0.15 0.15 91 1014.3
20260903190057 64 139 0.0 3.0 0.00 0.15 0.15 92 1014.4
20260903184556 63 221 0.0 2.0 0.00 0.15 0.15 93 1014.8
20260903183055 62 131 1.0 4.0 0.00 0.15 0.15 93 1015.1
20260903181552 63 92 0.0 2.0 0.00 0.15 0.15 94 1015.2
20260903180059 62 0 0.0 2.0 0.00 0.15 0.15 94 1015.1
20260903174558 62 179 1.0 6.0 0.00 0.15 0.15 94 1015.1
20260903173054 62 47 0.0 4.0 0.00 0.15 0.15 94 1015.0
20260903171610 62 152 1.0 7.0 0.00 0.15 0.15 94 1015.1
20260903170056 62 152 0.0 5.0 0.00 0.15 0.15 94 1015.4
20260903164620 61 178 1.0 4.0 0.00 0.15 0.15 94 1015.2
20260903163105 61 224 0.0 4.0 0.00 0.15 0.15 94 1015.6
20260903161559 62 143 0.0 6.0 0.00 0.15 0.15 94 1015.8
20260903160117 62 265 0.0 5.0 0.00 0.15 0.15 94 1015.9
20260903154608 61 161 1.0 6.0 0.00 0.15 0.15 94 1016.2
20260903153108 61 169 0.0 4.0 0.00 0.15 0.15 94 1016.6
20260903151601 61 84 0.0 4.0 0.00 0.15 0.15 94 1016.6
20260903150112 60 0 1.0 7.0 0.00 0.15 0.15 94 1016.7
20260903144604 60 0 1.0 4.0 0.00 0.15 0.15 94 1016.8
20260903143108 60 183 0.0 7.0 0.00 0.15 0.15 94 1016.9
20260903141613 60 89 1.0 6.0 0.00 0.15 0.15 94 1016.9
20260903140107 60 142 2.0 7.0 0.00 0.15 0.15 94 1017.1
20260903134602 60 0 0.0 4.0 0.00 0.15 0.15 94 1017.1